Location: Veytaux
(46.4185°N, 6.9320°E)
Time: 07:22:23
(UTC+00:00)

Cosmos 1023 Rocket - Pass Details

Date: 27 May 2022
Orbit: 735 x 772 km, 74.1° (Epoch: 01 July)

Event Time Altitude Azimuth Distance (km) Brightness Sun altitude
Rises 02:32:58 0° 336° (NNW) 3,259 8.1 -10.6°
Reaches altitude 10° 02:35:22 10° 335° (NNW) 2,327 7.3 -10.3°
Maximum altitude 02:40:39 74° 251° (WSW) 803 4.5 -9.7°
Drops below altitude 10° 02:45:52 10° 167° (SSE) 2,300 6.7 -9.1°
Sets 02:48:13 0° 166° (SSE) 3,217 7.4 -8.8°
